GW3703 Weather Reports


Display with metric or nautical units.
time (UTC)temp
F
wind
direction
speed
MPH
gust
MPH
rain 1hr
in
rain 24hr
in
rain mn
in
humidity
%
barometer
mb
20260506190109 83 277 4.0 10.0 0.00 0.01 0.00 79 1008.8
20260506184557 84 274 4.0 11.0 0.00 0.01 0.00 76 1008.9
20260506183055 84 134 2.0 8.0 0.00 0.01 0.00 74 1009.1
20260506181554 85 138 1.0 8.0 0.00 0.01 0.00 77 1009.2
20260506180105 83 170 0.0 9.0 0.00 0.01 0.00 78 1009.4
20260506174556 82 248 2.0 8.0 0.00 0.02 0.00 81 1009.6
20260506173058 81 0 1.0 5.0 0.00 0.02 0.00 82 1009.9
20260506171557 81 163 2.0 6.0 0.00 0.02 0.00 82 1010.0
20260506170105 81 247 2.0 7.0 0.00 0.02 0.00 81 1010.0
20260506164553 81 0 2.0 6.0 0.00 0.02 0.00 82 1009.9
20260506163111 80 250 3.0 6.0 0.00 0.02 0.00 83 1009.7
20260506161556 79 0 1.0 7.0 0.00 0.02 0.00 85 1009.6
20260506160055 79 244 1.0 4.0 0.00 0.02 0.00 85 1009.3
20260506154610 78 246 3.0 6.0 0.00 0.02 0.00 85 1009.3
20260506153107 78 250 4.0 9.0 0.00 0.02 0.00 85 1009.1
20260506151558 79 250 4.0 10.0 0.00 0.02 0.00 85 1008.9
20260506150053 79 264 3.0 8.0 0.00 0.02 0.00 85 1008.8
20260506144555 78 263 3.0 8.0 0.00 0.02 0.00 87 1008.6
20260506143103 78 228 4.0 10.0 0.00 0.02 0.00 87 1008.4
20260506141551 77 247 5.0 11.0 0.00 0.02 0.00 88 1008.3
20260506140057 77 248 3.0 9.0 0.00 0.02 0.00 88 1008.3
20260506134554 77 234 4.0 10.0 0.00 0.02 0.00 89 1008.2
20260506133057 76 243 4.0 11.0 0.00 0.02 0.00 89 1008.2
20260506131557 76 249 3.0 7.0 0.00 0.02 0.00 90 1008.3
20260506130053 75 231 3.0 8.0 0.00 0.02 0.00 90 1008.2
20260506124552 75 255 2.0 5.0 0.00 0.02 0.00 90 1008.3
20260506123052 75 249 2.0 7.0 0.00 0.02 0.00 90 1008.1
20260506121553 75 275 2.0 5.0 0.00 0.02 0.00 90 1008.1
20260506120059 75 0 1.0 5.0 0.00 0.02 0.00 90 1008.1
20260506114604 75 247 2.0 4.0 0.00 0.02 0.00 90 1008.0
20260506113057 75 265 0.0 4.0 0.00 0.02 0.00 90 1008.0
20260506111559 75 251 2.0 7.0 0.00 0.02 0.00 90 1007.8
20260506110103 75 245 3.0 7.0 0.00 0.02 0.00 90 1007.8
20260506104603 75 251 1.0 5.0 0.00 0.02 0.00 89 1007.9
20260506103109 75 248 2.0 6.0 0.00 0.02 0.00 89 1007.6
20260506101605 75 263 3.0 9.0 0.00 0.02 0.00 89 1007.6
20260506100057 75 265 4.0 8.0 0.00 0.02 0.00 89 1007.6
20260506094621 75 254 5.0 9.0 0.00 0.02 0.00 89 1007.5
20260506093101 75 267 6.0 11.0 0.00 0.02 0.00 88 1007.5
20260506091558 75 259 5.0 8.0 0.00 0.02 0.00 88 1007.5
20260506090055 75 268 4.0 8.0 0.00 0.02 0.00 88 1007.5
20260506084552 75 0 0.0 1.0 0.00 0.03 0.00 88 1007.6
20260506083059 75 0 0.0 4.0 0.00 0.03 0.00 88 1007.6
20260506081554 76 246 2.0 4.0 0.00 0.03 0.00 87 1007.4
20260506073053 76 261 4.0 8.0 0.00 0.03 0.00 87 1007.8
20260506071557 76 277 1.0 8.0 0.00 0.03 0.00 87 1008.1
20260506070109 76 238 4.0 8.0 0.00 0.03 0.00 86 1008.2
20260506061557 77 242 5.0 10.0 0.00 0.03 0.00 86 1008.6
20260506044553 77 242 5.0 8.0 0.00 0.03 0.03 86 1008.5
20260506043051 77 253 4.0 9.0 0.00 0.03 0.03 86 1008.4
20260506041557 77 276 4.0 10.0 0.00 0.03 0.03 86 1008.2
20260506034604 76 253 6.0 11.0 0.00 0.03 0.03 86 1007.6
20260506033055 76 256 6.0 10.0 0.00 0.03 0.03 87 1007.5
20260506031600 76 242 7.0 13.0 0.01 0.03 0.03 86 1007.3
20260506030053 77 252 7.0 12.0 0.01 0.03 0.03 85 1007.2
20260506024558 77 243 6.0 12.0 0.01 0.03 0.03 84 1007.2
20260506023058 78 265 5.0 12.0 0.01 0.03 0.03 84 1007.0
20260506021600 78 286 8.0 13.0 0.00 0.02 0.02 84 1006.8
20260506014558 78 270 6.0 10.0 0.00 0.02 0.02 83 1006.8
20260506013056 78 259 5.0 9.0 0.00 0.02 0.02 83 1006.6
20260506011608 78 277 7.0 12.0 0.00 0.02 0.02 82 1006.2
20260506010059 79 287 6.0 11.0 0.00 0.02 0.02 82 1006.0
20260506004552 79 251 7.0 14.0 0.00 0.02 0.02 82 1005.9
20260506003053 79 263 7.0 15.0 0.00 0.02 0.02 81 1005.4
20260506001554 80 257 9.0 16.0 0.00 0.02 0.02 81 1005.5
20260506000053 80 255 9.0 19.0 0.00 0.02 0.02 79 1005.4
20260505234600 80 252 10.0 18.0 0.00 0.02 0.02 79 1005.4
20260505233108 81 254 10.0 17.0 0.00 0.02 0.02 79 1005.2
20260505231600 81 260 11.0 17.0 0.00 0.02 0.02 78 1005.3
20260505230057 82 251 10.0 18.0 0.00 0.02 0.02 77 1005.2
20260505224552 83 275 13.0 19.0 0.00 0.03 0.02 74 1005.4
20260505223058 83 277 12.0 19.0 0.00 0.03 0.02 76 1005.6
20260505221555 83 247 12.0 17.0 0.00 0.03 0.02 75 1005.6
20260505220100 84 269 8.0 14.0 0.00 0.03 0.02 74 1005.8
20260505214555 84 263 5.0 14.0 0.00 0.03 0.02 75 1005.9
20260505213055 84 244 9.0 15.0 0.00 0.03 0.02 74 1006.2
20260505211609 85 273 8.0 13.0 0.00 0.03 0.02 73 1006.3
20260505210054 84 240 7.0 17.0 0.00 0.03 0.02 75 1006.5
20260505204602 86 256 10.0 14.0 0.00 0.03 0.02 72 1006.6
20260505203058 85 268 10.0 16.0 0.00 0.03 0.02 73 1006.9
20260505201602 84 253 8.0 13.0 0.00 0.03 0.02 72 1007.1
20260505194607 84 284 8.0 13.0 0.00 0.03 0.02 74 1007.4
20260505193057 83 298 5.0 10.0 0.00 0.03 0.02 74 1007.6
20260505191556 83 243 7.0 11.0 0.00 0.03 0.02 74 1007.7